Temp
18 16 15 17 16 16 20 19 18 20 20 20 21 24 26 26 26 26 26 27 27 27 26 27 26 25 24 23 21 19 19 20 19 18 17 17 17 16 16 16 15 15 15 15
16 19 19 19 18 19 17 18 21 21 22 22 23 26 26 25 25 25 25 24 24 24 24 25 25 25 25 24 23 20 19 19 19 19 18 17 17 17 16 16 16 16 15 15
15 18 18 17 19 21 21 22 22 21 22 24 24 24 24 23 22 22 22 22 23 23 23 23 23 23 25 25 24 22 20 20 20 19 19 18 17 17 17 16 16 16 15 15
15 16 14 19 21 22 21 22 23 23 20 22 23 24 23 22 21 21 21 22 22 21 21 22 22 22 22 24 24 23 22 21 20 20 19 19 18 17 17 16 16 16 16 16
14 15 17 19 21 21 21 21 22 20 19 20 22 22 19 20 20 21 21 21 21 21 21 19 18 18 19 20 22 24 23 22 21 20 19 19 18 17 17 17 16 16 16 16
14 14 14 18 21 22 22 19 19 20 18 20 20 18 18 20 21 21 22 22 22 20 18 15 14 14 16 19 20 20 21 22 22 21 20 20 19 18 17 17 17 16 16 16
13 13 16 20 20 20 18 16 18 18 18 18 17 18 19 20 21 22 22 21 20 19 14 11 10 10 14 13 12 13 15 14 18 21 21 20 20 19 18 17 17 16 14 12
13 13 13 19 19 17 16 17 17 17 17 16 17 17 18 18 19 18 19 18 16 15 11 8 6 6 7 7 7 8 10 9 9 11 15 19 19 16 15 13 9 6 6 5
15 15 18 17 16 17 17 17 16 16 16 15 15 15 15 16 16 16 15 14 12 11 9 6 4 3 3 4 5 6 5 4 4 5 6 7 8 8 10 10 8 3 2 -0
14 13 13 12 14 15 16 15 15 15 14 14 13 13 13 14 12 12 12 9 8 6 4 3 2 1 1 1 3 3 3 1 0 -0 -0 1 2 3 3 3 2 0 -1 -2
15 13 11 10 11 12 14 13 12 13 12 12 11 11 11 11 9 8 7 5 4 2 1 0 -0 -1 -1 1 1 1 1 1 -1 -2 -2 -3 -4 -3 -2 -1 0 -1 -2 -3
11 10 10 9 10 11 11 11 11 11 10 10 9 9 9 8 5 4 3 1 0 -1 -1 -2 -2 -3 -2 -1 -0 -0 -1 -1 -2 -2 -3 -3 -4 -4 -4 -4 -3 -3 -3 -3
9 10 11 10 8 8 8 8 8 7 6 5 4 5 5 4 1 1 -0 -2 -2 -3 -3 -4 -4 -4 -4 -2 -2 -2 -2 -2 -3 -3 -3 -3 -4 -4 -4 -5 -5 -5 -5 -5
8 9 10 8 6 7 7 7 7 5 4 2 2 1 0 -1 -2 -3 -4 -4 -4 -5 -5 -5 -5 -5 -5 -4 -3 -3 -4 -4 -4 -4 -4 -5 -5 -5 -5 -5 -5 -5 -6 -6
7 8 7 7 7 7 7 6 6 4 2 1 -0 -2 -2 -3 -5 -6 -6 -6 -6 -6 -6 -6 -5 -5 -5 -5 -4 -4 -4 -4 -4 -5 -5 -5 -5 -5 -5 -6 -6 -6 -6 -6
6 7 6 5 5 5 4 2 2 1 0 -0 -2 -3 -4 -5 -6 -6 -7 -7 -7 -7 -7 -7 -6 -6 -5 -5 -5 -5 -5 -5 -4 -4 -4 -5 -5 -6 -6 -6 -6 -6 -6 -7
3 3 2 2 2 2 0 -0 -1 -2 -2 -3 -4 -4 -5 -5 -5 -6 -7 -8 -8 -8 -8 -8 -7 -7 -6 -6 -6 -6 -6 -6 -6 -6 -6 -7 -7 -8 -8 -8 -8 -8 -9 -9
2 1 -0 -0 -0 -1 -1 -2 -3 -4 -5 -6 -6 -7 -8 -7 -7 -8 -9 -9 -9 -10 -9 -9 -9 -8 -7 -7 -7 -7 -8 -8 -8 -8 -8 -8 -8 -8 -8 -9 -9 -9 -10 -10
-1 -2 -2 -3 -3 -3 -4 -4 -5 -6 -7 -8 -8 -8 -9 -10 -10 -11 -11 -11 -11 -11 -11 -10 -10 -9 -9 -8 -8 -8 -9 -9 -9 -9 -9 -9 -9 -9 -10 -10 -10 -11 -11 -12
-3 -4 -5 -5 -6 -5 -6 -7 -7 -8 -8 -9 -10 -10 -11 -10 -10 -11 -12 -12 -12 -12 -12 -11 -11 -11 -10 -10 -10 -9 -9 -9 -10 -10 -10 -10 -10 -10 -10 -11 -11 -11 -12 -12
-5 -6 -7 -7 -7 -8 -8 -8 -9 -9 -10 -10 -10 -11 -11 -12 -12 -11 -11 -12 -13 -13 -13 -13 -12 -11 -11 -11 -11 -11 -10 -11 -11 -11 -11 -11 -11 -12 -12 -12 -12 -13 -13 -13
-6 -7 -8 -8 -8 -9 -9 -10 -10 -10 -10 -11 -11 -10 -10 -11 -12 -13 -14 -13 -13 -14 -14 -14 -13 -13 -12 -12 -12 -12 -12 -12 -12 -12 -13 -13 -13 -13 -13 -14 -14 -14 -14 -15
-7 -7 -8 -8 -9 -10 -10 -11 -11 -11 -11 -11 -11 -11 -12 -12 -12 -13 -14 -15 -15 -15 -15 -15 -14 -14 -13 -13 -13 -13 -13 -14 -14 -14 -14 -14 -14 -15 -15 -15 -15 -16 -16 -16
-7 -7 -8 -8 -9 -9 -9 -10 -10 -11 -12 -12 -12 -12 -11 -12 -13 -13 -14 -14 -15 -16 -16 -16 -15 -15 -14 -14 -15 -15 -15 -15 -15 -15 -15 -15 -15 -16 -16 -17 -17 -17 -17 -17
-7 -7 -7 -8 -7 -8 -9 -10 -10 -10 -10 -11 -12 -12 -13 -14 -14 -14 -14 -15 -15 -15 -16 -16 -15 -15 -15 -15 -15 -15 -16 -16 -16 -16 -16 -16 -17 -17 -18 -18 -18 -18 -18 -18
-7 -7 -8 -8 -8 -7 -8 -8 -8 -9 -10 -11 -12 -13 -14 -14 -14 -14 -15 -15 -15 -15 -15 -16 -16 -16 -16 -16 -16 -16 -16 -17 -17 -17 -17 -17 -17 -18 -19 -19 -19 -19 -19 -20
-7 -8 -8 -8 -8 -9 -9 -9 -9 -10 -11 -11 -12 -12 -13 -14 -14 -14 -14 -14 -15 -15 -15 -15 -16 -17 -17 -16 -16 -16 -17 -17 -18 -18 -18 -18 -18 -19 -20 -20 -20 -20 -20 -21
Height
694 702 700 692 695 696 682 689 695 686 680 680 676 662 652 647 648 652 653 651 649 646 646 646 648 654 661 666 673 678 684 686 687 692 698 703 708 712 716 721 723 727 731 735
698 685 681 684 687 678 691 690 673 672 672 664 659 651 650 652 655 657 658 658 656 653 652 651 654 646 650 657 663 670 675 677 682 686 690 692 696 701 706 710 713 718 720 724
703 688 686 688 676 668 661 659 664 674 662 653 653 656 658 659 664 667 666 665 663 660 658 655 653 654 648 648 654 660 665 670 674 678 680 683 689 694 694 699 705 706 709 713
707 698 708 676 659 658 665 660 657 655 671 665 659 658 660 665 670 671 670 668 665 664 662 658 656 655 652 651 649 651 656 661 665 668 671 676 679 682 686 689 692 696 700 704
707 700 688 674 663 665 666 667 658 665 672 670 665 665 675 673 673 672 672 669 667 666 665 665 664 662 657 653 650 647 648 651 655 660 665 669 672 673 677 682 685 687 692 695
702 706 699 677 661 655 653 679 672 673 684 674 670 677 679 674 673 669 668 666 665 667 670 674 675 671 667 661 655 651 652 648 646 652 654 658 661 666 671 676 677 682 686 686
706 703 683 665 661 659 677 693 681 681 683 681 682 683 678 676 674 672 669 669 669 670 676 682 682 676 669 665 663 661 656 651 646 642 644 649 651 656 659 665 669 668 673 678
703 702 702 667 669 679 685 686 689 687 690 691 689 690 687 684 681 679 676 676 680 681 686 690 688 682 678 675 673 668 664 658 653 646 644 645 646 649 651 654 663 667 671 676
687 686 672 675 679 683 685 687 692 694 696 698 698 696 695 690 689 689 689 691 692 695 697 697 693 689 684 681 676 669 666 664 661 657 654 652 652 653 651 654 660 667 673 679
687 691 692 695 689 690 691 697 699 702 704 706 706 704 703 698 702 701 701 703 704 705 704 702 699 695 691 685 680 674 667 672 671 669 665 663 660 662 664 661 663 666 667 679
680 692 700 706 705 705 702 706 710 709 711 712 710 708 708 707 713 712 712 714 714 713 711 708 704 699 693 688 685 682 671 673 679 680 678 677 671 675 674 674 673 668 672 683
699 706 709 715 713 712 711 713 714 712 714 715 717 715 715 716 722 722 723 723 721 719 716 712 708 703 696 690 688 688 685 679 681 683 687 684 686 685 687 687 684 690 681 679
713 711 707 713 722 724 722 721 721 723 726 727 726 724 722 722 727 728 729 728 727 725 723 718 714 708 702 697 694 692 691 689 689 685 689 695 690 691 694 704 704 703 716 694
719 714 712 719 724 722 721 721 721 725 728 730 731 730 731 732 733 734 734 733 732 731 729 725 718 712 708 705 702 700 698 696 697 697 698 703 703 705 704 708 718 717 724 711
725 721 723 723 723 724 725 726 726 732 736 738 739 740 739 740 741 740 739 737 736 735 733 730 725 721 715 712 709 708 707 708 708 709 711 713 704 722 710 719 728 727 730 731
731 725 729 730 731 733 735 739 740 741 741 742 744 745 746 746 747 746 744 742 739 740 739 737 734 731 724 720 716 716 715 716 717 718 718 721 720 724 722 727 731 730 734 735
738 738 739 740 741 741 743 745 746 748 748 749 750 750 750 750 751 750 749 748 747 746 746 744 744 740 733 728 724 725 725 726 725 726 729 730 731 732 733 735 736 741 745 746
749 750 750 750 749 747 748 751 753 754 754 755 755 756 757 756 757 759 756 754 753 750 752 752 750 749 743 738 735 735 735 735 736 737 739 740 740 742 743 744 745 749 752 752
757 757 757 757 755 755 757 758 759 759 760 761 760 762 764 765 765 765 763 759 759 758 760 758 756 754 752 748 746 744 744 744 745 745 748 748 747 750 751 751 755 759 759 760
764 764 764 765 764 763 764 765 765 765 766 766 767 767 768 770 771 771 769 768 770 770 767 763 761 761 760 758 756 754 753 753 753 755 757 757 758 759 759 762 765 764 765 769
770 771 772 772 772 772 772 772 772 772 773 773 773 773 775 776 775 775 775 774 777 776 773 769 768 767 767 765 763 762 762 761 762 763 764 763 763 764 767 768 769 770 772 773
774 776 777 777 777 777 778 778 777 778 779 779 778 778 779 780 781 781 782 783 783 781 778 776 775 774 773 772 771 770 770 769 770 771 771 771 771 775 775 775 775 777 778 778
779 780 781 781 781 782 783 784 784 784 784 783 784 784 785 786 786 786 787 789 787 786 783 782 782 780 779 778 777 777 777 777 777 777 778 778 780 780 780 781 781 781 781 782
783 783 784 785 785 785 786 788 788 788 789 789 789 788 788 790 791 791 792 792 791 789 788 787 787 786 784 783 782 781 782 783 783 783 783 784 785 785 784 784 783 784 784 784
785 785 786 786 786 788 789 790 791 791 792 793 793 794 794 794 794 795 795 795 794 793 792 791 790 789 788 787 787 787 786 787 787 787 787 787 787 787 786 785 784 784 784 784
787 788 789 788 789 789 790 790 791 792 793 795 796 797 797 797 797 797 797 797 796 795 794 794 792 792 791 791 791 790 790 790 790 790 789 789 788 787 786 786 785 785 784 784
790 790 791 791 792 792 792 793 793 794 796 797 798 799 799 799 799 799 799 798 798 797 797 796 795 795 794 794 793 793 793 791 791 791 790 789 788 787 786 785 785 784 784 783
Wind_Speed
12 4 11 3 6 16 17 19 11 8 14 8 11 12 10 7 8 8 9 9 9 11 9 6 14 19 23 25 28 30 30 29 32 33 34 33 34 38 38 37 38 39 39 41
13 12 9 12 15 17 15 19 12 9 13 15 18 15 4 5 8 9 12 16 17 16 16 15 15 18 22 24 26 30 30 32 29 30 33 36 35 35 37 39 39 39 39 39
10 11 12 8 9 11 9 8 7 10 10 7 1 5 9 9 14 12 12 12 11 10 10 11 17 26 12 23 25 27 31 30 30 31 33 35 35 35 37 38 37 40 41 41
7 8 4 6 11 3 6 12 13 12 7 7 3 3 11 14 12 11 12 12 11 11 13 17 22 23 26 19 22 26 27 28 30 31 33 31 33 37 37 37 38 37 38 39
4 6 12 18 6 3 6 7 7 9 11 5 5 4 11 13 10 9 7 7 8 14 18 26 27 29 28 28 24 18 24 27 28 29 29 29 31 35 35 33 33 36 36 36
5 7 5 5 16 6 9 5 6 11 1 8 6 5 9 13 12 12 11 8 7 12 21 23 25 26 22 18 21 21 25 19 27 28 29 30 33 29 30 31 32 30 31 33
9 7 5 9 5 6 6 4 8 10 12 12 9 9 12 12 11 11 8 14 22 19 22 20 23 24 22 25 26 30 29 29 22 30 28 30 29 31 29 30 30 30 29 22
8 5 11 3 5 6 8 9 6 10 10 11 10 11 12 14 14 17 17 20 26 22 20 20 21 21 20 21 24 25 23 24 25 19 8 11 22 16 16 18 17 16 17 14
8 7 5 9 13 10 8 10 11 11 11 11 10 11 13 12 15 15 16 20 24 20 18 19 21 20 19 24 21 18 22 24 23 19 17 15 11 10 16 18 21 16 14 14
5 4 12 8 13 11 13 13 14 12 12 11 10 11 12 12 13 13 18 19 20 20 19 19 21 20 19 24 20 15 21 23 24 26 24 20 18 15 9 8 12 14 21 18
9 10 11 13 7 7 14 12 12 11 12 13 12 13 13 12 13 13 17 19 19 18 17 18 19 20 22 21 19 12 17 21 23 23 24 26 37 30 22 15 6 19 21 18
4 8 8 7 11 13 12 11 11 11 11 12 13 12 12 11 13 15 16 18 17 17 18 19 20 22 25 22 17 13 13 18 20 23 21 26 26 34 41 34 27 22 27 34
4 10 8 10 13 12 10 10 10 10 10 10 12 13 13 10 15 15 16 17 18 17 16 16 18 22 26 23 20 21 18 18 18 21 21 18 24 26 29 37 41 41 32 42
11 11 8 13 6 10 11 11 10 12 14 15 15 15 14 13 15 16 16 16 15 16 17 18 19 24 25 23 23 24 26 28 24 23 24 22 24 25 26 26 23 31 30 38
13 10 9 9 10 11 12 12 9 10 9 9 13 13 13 13 14 16 17 16 17 20 21 22 23 24 24 25 27 25 24 23 25 26 26 26 31 22 29 26 23 24 25 28
11 9 12 11 11 11 10 10 9 9 8 9 10 12 13 15 16 18 21 22 23 21 24 25 25 24 25 24 26 27 29 28 24 22 23 22 23 22 24 22 19 18 18 23
10 11 11 10 10 11 9 9 9 8 9 10 12 11 13 15 17 19 21 23 25 27 28 28 26 26 26 28 27 25 25 26 27 27 24 24 24 24 24 24 25 25 26 27
10 10 10 9 9 8 9 10 11 12 11 14 14 16 17 16 15 17 19 20 23 29 31 29 29 28 28 27 26 25 25 25 25 25 24 24 23 23 23 23 23 22 23 26
14 11 12 14 11 11 11 11 13 14 15 16 17 18 19 19 20 20 21 25 24 23 27 25 26 29 29 27 25 26 25 24 24 25 24 25 25 24 23 24 22 22 21 20
13 15 15 14 17 16 15 16 17 18 17 18 19 19 20 19 16 19 23 25 23 20 23 25 23 24 23 24 24 24 23 23 23 23 21 21 20 20 21 20 18 19 18 18
11 14 15 15 16 17 17 16 17 18 17 17 17 17 18 21 25 18 17 17 21 19 20 23 24 20 21 21 22 22 22 21 20 19 19 19 20 19 19 18 19 18 17 16
12 12 12 13 15 17 17 18 19 19 18 20 21 18 15 14 17 21 23 16 16 17 19 20 21 21 19 20 20 21 21 20 20 19 19 18 18 16 16 16 16 15 13 12
12 13 14 13 15 16 17 17 17 17 18 17 15 15 17 16 15 13 12 15 14 16 17 20 19 18 18 19 18 19 19 19 18 17 16 16 15 13 13 13 12 10 8 10
11 12 13 12 12 13 15 13 14 15 17 16 17 18 13 12 14 12 11 10 13 17 19 18 16 16 17 17 16 16 17 16 15 14 13 12 12 11 9 9 9 9 7 7
10 10 10 10 11 10 10 10 10 10 12 12 12 13 13 13 11 9 10 10 12 11 12 13 14 15 16 15 15 14 14 14 13 11 10 9 9 8 8 8 7 6 6 5
8 9 9 10 8 7 6 6 8 7 7 9 10 9 9 9 9 8 9 9 10 10 11 13 14 13 13 12 12 11 9 8 9 9 8 7 7 7 6 6 5 5 5 4
7 6 7 7 7 8 8 9 8 8 7 7 8 7 7 7 7 8 8 8 9 9 9 9 10 11 10 10 9 8 8 8 10 8 7 7 7 7 6 5 5 4 5 5
Wind_Direction
309 222 293 312 17 307 216 214 230 240 253 323 300 241 280 338 356 334 316 324 319 321 353 193 188 198 204 204 199 199 208 217 211 207 207 209 209 208 212 213 211 211 211 215
302 303 264 279 194 233 185 231 208 256 252 189 220 256 318 18 357 351 352 11 10 11 3 349 350 197 202 206 204 198 206 216 219 212 210 212 212 210 211 213 215 214 215 215
283 308 323 295 256 272 283 279 273 261 275 315 119 42 19 5 40 20 9 8 354 349 343 341 348 353 218 206 209 200 209 215 217 219 216 214 213 214 215 214 215 216 218 219
282 289 259 246 273 313 296 243 248 267 126 236 56 359 58 49 34 15 3 356 5 14 355 354 344 335 341 326 209 208 213 217 220 220 222 219 213 216 218 217 218 218 220 222
236 241 269 292 291 255 301 320 28 43 42 356 29 320 47 22 2 350 340 346 349 21 11 16 9 355 344 334 329 231 215 220 222 222 226 224 221 222 222 220 220 221 224 226
252 228 245 246 260 326 272 230 69 42 58 26 7 25 33 1 347 332 338 343 357 35 40 22 2 349 334 324 330 344 349 249 221 221 224 224 224 224 223 224 224 224 227 227
231 248 275 249 53 347 217 79 43 32 21 29 24 7 344 346 346 335 353 14 29 47 58 28 5 356 356 11 3 348 347 348 323 219 221 227 224 221 219 221 221 214 210 205
227 244 240 222 307 310 79 80 44 50 34 25 13 2 353 359 351 10 15 28 22 31 37 22 11 11 7 6 349 350 353 2 8 23 26 227 212 190 185 187 171 152 152 145
190 215 266 51 90 84 68 68 43 38 34 19 14 8 7 351 16 10 20 19 18 11 13 15 10 15 7 348 350 7 9 15 14 20 34 46 75 116 142 161 166 151 141 128
284 35 49 32 53 60 53 51 44 28 32 28 14 18 9 18 17 9 17 15 14 10 11 7 4 7 6 358 355 17 50 30 30 33 38 44 53 44 56 123 133 124 121 101
206 66 93 57 69 26 63 49 40 25 31 24 18 18 9 27 19 15 18 11 15 12 11 6 4 7 9 10 6 14 66 67 52 45 47 53 53 46 46 42 96 116 112 110
73 39 76 97 60 28 42 28 28 15 13 20 23 19 17 31 27 22 20 14 13 15 13 8 8 8 14 25 29 25 39 75 89 84 69 62 63 64 61 64 74 86 105 105
42 350 57 73 51 37 31 25 23 37 32 18 21 22 27 43 36 31 30 25 21 16 15 20 20 18 21 36 55 55 50 53 52 75 76 76 84 81 80 66 75 81 82 96
26 3 32 36 23 11 15 21 28 37 30 30 22 30 35 41 43 41 30 31 29 29 24 22 31 32 34 46 57 63 67 70 66 68 74 77 78 81 86 83 78 83 74 81
8 9 43 18 21 21 15 15 13 36 27 33 39 40 45 51 48 46 41 40 43 39 26 24 29 30 45 55 60 62 66 70 78 81 84 86 88 88 85 86 90 84 83 70
348 11 16 12 12 11 19 23 21 27 33 45 51 56 63 70 70 64 58 54 50 38 27 23 26 30 47 57 62 61 61 66 67 69 75 72 76 75 76 79 77 75 67 76
5 5 3 3 2 8 44 46 40 42 44 53 50 64 80 83 76 68 63 56 54 48 39 31 22 33 46 57 59 60 62 61 67 68 69 74 76 74 76 78 75 70 70 77
16 27 22 14 6 25 47 48 52 57 61 66 67 64 57 57 59 54 53 54 52 48 37 36 36 34 46 55 59 61 63 63 64 65 68 70 74 78 77 74 75 75 73 75
35 35 37 30 34 53 58 63 67 74 73 76 76 73 69 66 62 57 52 53 46 40 22 38 42 40 41 51 57 62 63 64 65 64 63 65 66 67 70 72 72 74 74 72
44 48 51 50 45 56 61 63 69 67 68 69 68 63 55 46 69 63 56 54 47 46 40 45 42 39 41 46 52 57 62 66 67 65 65 68 68 69 71 73 76 76 76 78
62 65 64 62 64 62 67 75 79 76 74 76 79 75 72 62 53 51 55 52 36 39 42 41 43 44 44 49 51 55 58 61 63 63 64 66 67 66 67 68 68 68 68 70
73 74 76 74 72 70 66 69 69 70 67 62 58 60 69 78 76 60 49 54 46 47 48 45 42 48 53 58 58 58 59 60 61 61 60 62 64 65 64 66 67 69 67 67
90 91 89 86 87 86 81 76 72 69 64 58 64 75 72 64 58 61 56 43 50 52 54 51 51 53 56 57 59 64 65 64 63 65 67 67 68 68 64 64 70 67 67 57
92 92 94 97 98 92 86 83 82 79 76 66 55 54 55 81 71 65 67 61 59 59 59 54 57 57 58 59 60 60 59 60 63 64 64 63 63 65 66 60 60 62 60 56
97 107 118 118 102 101 108 113 103 92 79 72 66 62 62 64 76 61 65 60 57 58 52 53 51 50 54 54 55 59 58 55 58 57 56 55 52 53 51 49 42 52 44 41
84 84 74 63 70 83 97 102 90 79 89 86 73 68 63 62 66 73 70 59 54 50 48 38 43 46 44 46 45 44 39 50 47 42 40 38 35 36 33 35 29 23 14 359
102 116 112 88 67 53 52 49 78 79 73 83 78 67 75 78 66 62 54 50 45 41 41 38 32 34 38 35 33 33 33 23 25 40 23 19 18 12 0 360 348 353 349 343